{"data":{"norad_id":48375,"intl_designator":"2021-038Y","name":"STARLINK-2603","alt_names":[],"object_type":"PAYLOAD","status":"ACTIVE","operator":null,"country":"US","launch_date":"2021-05-04","launch_site_code":"AFETR","launch_vehicle":null,"mission":null,"orbit_class":"UNKNOWN","rcs_meters":null,"size_class":null,"mass_kg":null,"dimensions":null,"purposes":["comms"],"wikipedia_slug":null,"has_3d_model":false,"image_url":null,"decayed_at":null,"tle_current":{"epoch":"2026-05-25T00:01:30.098784Z","epoch_age_seconds":71427,"freshness":"FRESH","line1":"1 48375U 21038Y   26145.00104281  .00007467  00000+0  25201-3 0  9991","line2":"2 48375  53.1595 352.8812 0001109  88.7619 271.3510 15.31715889278910","mean_motion":15.31715889,"eccentricity":0.0001109,"inclination_deg":53.1595,"raan_deg":352.8812,"arg_perigee_deg":88.7619,"mean_anomaly_deg":271.351,"bstar":0.00025201,"rev_number":27891,"period_min":94.012212730921,"perigee_km":469.93309614676,"apogee_km":471.452166559,"semimajor_km":6848.8296313529,"source":"CELESTRAK","updated_at":"2026-05-25T13:38:16.688322Z"}}}